EW6254 Weather Reports


Display with metric or nautical units.
time (UTC)temp
F
wind
direction
speed
MPH
gust
MPH
rain 1hr
in
rain 24hr
in
rain mn
in
humidity
%
barometer
mb
20180225033406 27 0 2.0 7.0 0.00 0.05 0.05 90 1009.0
20180225032336 27 0 1.0 6.0 0.00 0.05 0.05 90 1008.8
20180225031336 27 134 2.0 7.0 0.00 0.05 0.05 90 1008.6
20180225030320 27 0 3.0 7.0 0.00 0.05 0.05 90 1008.5
20180225025245 27 0 3.0 7.0 0.00 0.05 0.05 89 1008.3
20180225024251 27 0 2.0 6.0 0.00 0.05 0.05 89 1008.1
20180225023250 27 0 4.0 6.0 0.00 0.05 0.05 89 1008.1
20180225022309 27 0 4.0 6.0 0.00 0.05 0.05 89 1008.0
20180225021255 27 0 2.0 6.0 0.00 0.05 0.05 89 1008.2
20180225020250 27 0 1.0 6.0 0.00 0.05 0.05 89 1008.1
20180225015217 27 0 0.0 0.0 0.00 0.05 0.05 88 1008.1
20180225014157 27 0 0.0 0.0 0.00 0.05 0.05 88 1008.1
20180225013205 27 0 0.0 4.0 0.00 0.05 0.05 88 1008.2
20180225012224 28 0 1.0 4.0 0.00 0.05 0.05 88 1008.2
20180225011202 28 0 1.0 4.0 0.00 0.05 0.05 89 1008.2
20180225010202 28 0 1.0 7.0 0.00 0.05 0.05 88 1008.1
20180225005144 28 182 1.0 7.0 0.00 0.05 0.05 89 1008.0
20180225004200 28 266 2.0 7.0 0.00 0.05 0.05 89 1008.1
20180225003126 28 244 2.0 8.0 0.00 0.05 0.05 89 1007.8
20180225002136 28 225 1.0 11.0 0.00 0.05 0.05 89 1007.6
20180225001127 28 174 1.0 11.0 0.00 0.05 0.05 89 1007.5
20180225000149 28 225 1.0 5.0 0.00 0.05 0.05 89 1007.3
20180224235132 28 188 1.0 5.0 0.00 0.05 0.05 89 1007.2
20180224234121 28 257 1.0 7.0 0.00 0.05 0.05 89 1007.1
20180224233143 28 0 1.0 7.0 0.00 0.05 0.05 90 1007.0
20180224232150 28 255 1.0 7.0 0.00 0.05 0.05 90 1007.0
20180224231145 28 201 1.0 7.0 0.00 0.05 0.05 90 1007.1
20180224230200 28 238 1.0 7.0 0.00 0.05 0.05 90 1007.0
20180224225142 28 267 1.0 5.0 0.00 0.05 0.05 90 1007.0
20180224224203 28 119 1.0 5.0 0.00 0.05 0.05 90 1006.7
20180224223145 28 205 1.0 9.0 0.00 0.05 0.05 91 1006.6
20180224222119 28 331 2.0 9.0 0.00 0.05 0.05 91 1006.5
20180224221105 28 302 2.0 8.0 0.00 0.05 0.05 91 1006.7
20180224220101 28 315 1.0 8.0 0.00 0.05 0.05 91 1006.8
20180224215057 28 75 2.0 6.0 0.00 0.05 0.05 92 1006.4
20180224214021 28 321 0.0 0.0 0.00 0.05 0.05 92 1006.5
20180224212953 29 286 0.0 6.0 0.00 0.05 0.05 92 1006.6
20180224212015 29 278 0.0 3.0 0.00 0.05 0.05 92 1006.7
20180224210944 29 315 0.0 1.0 0.00 0.05 0.05 92 1007.1
20180224205919 29 306 0.0 2.0 0.00 0.05 0.05 92 1007.4
20180224204927 29 280 0.0 1.0 0.00 0.05 0.05 92 1007.6
20180224203940 29 0 0.0 0.0 0.00 0.05 0.05 92 1007.6
20180224202946 29 0 0.0 0.0 0.00 0.05 0.05 92 1008.1
20180224201935 29 0 0.0 0.0 0.00 0.05 0.05 92 1008.3
20180224200926 29 0 0.0 0.0 0.00 0.05 0.05 93 1008.6
20180224195901 29 0 0.0 0.0 0.00 0.05 0.05 93 1008.8
20180224194903 29 0 0.0 0.0 0.00 0.05 0.05 93 1008.9
20180224193834 28 342 0.0 0.0 0.00 0.04 0.04 93 1008.8
20180224192845 28 337 0.0 0.0 0.00 0.04 0.04 93 1009.0
20180224191904 28 336 0.0 0.0 0.00 0.04 0.04 93 1009.4
20180224190827 28 333 0.0 0.0 0.00 0.04 0.04 93 1009.8
20180224185800 28 334 0.0 0.0 0.00 0.04 0.04 93 1010.1
20180224184746 28 337 0.0 0.0 0.00 0.04 0.04 93 1010.1
20180224183740 28 336 0.0 0.0 0.00 0.04 0.04 93 1010.4
20180224182715 28 336 0.0 0.0 0.00 0.04 0.04 93 1011.1
20180224181717 28 342 0.0 0.0 0.00 0.03 0.03 93 1011.2
20180224180643 28 324 0.0 0.0 0.00 0.03 0.03 93 1011.5
20180224175617 28 321 0.0 0.0 0.00 0.03 0.03 93 1011.6
20180224174608 27 319 0.0 0.0 0.00 0.03 0.03 93 1011.6
20180224173557 27 342 0.0 0.0 0.00 0.03 0.03 93 1011.3
20180224172546 27 0 0.0 0.0 0.00 0.03 0.03 93 1011.6
20180224171529 27 355 0.0 0.0 0.00 0.03 0.03 93 1012.1
20180224170531 27 347 0.0 0.0 0.00 0.03 0.03 93 1012.1
20180224165518 27 355 0.0 0.0 0.00 0.03 0.03 93 1012.0
20180224164506 27 40 0.0 0.0 0.00 0.03 0.03 93 1012.0
20180224163434 27 74 0.0 0.0 0.00 0.03 0.03 93 1012.4
20180224162445 27 56 0.0 0.0 0.00 0.03 0.03 93 1012.7
20180224161441 26 67 0.0 0.0 0.00 0.03 0.03 93 1012.9
20180224160440 26 92 0.0 0.0 0.00 0.03 0.03 93 1013.4
20180224155425 26 115 0.0 0.0 0.00 0.03 0.03 93 1013.9
20180224154403 26 123 0.0 0.0 0.00 0.02 0.02 93 1014.2
20180224153400 26 103 0.0 0.0 0.00 0.02 0.02 93 1014.5
20180224152413 26 147 0.0 0.0 0.00 0.02 0.02 93 1015.0
20180224151352 26 144 0.0 0.0 0.00 0.02 0.02 93 1015.6
20180224150329 25 141 0.0 0.0 0.00 0.01 0.01 93 1015.8
20180224145345 25 139 0.0 3.0 0.00 0.01 0.01 93 1015.9
20180224144400 25 122 1.0 4.0 0.00 0.01 0.01 93 1015.9
20180224143400 25 163 0.0 4.0 0.00 0.01 0.01 93 1015.7
20180224142351 25 116 0.0 4.0 0.00 0.01 0.01 93 1015.9
20180224141318 25 80 2.0 0.0 0.00 0.01 0.01 93 1016.0
20180224140244 24 84 2.0 7.0 0.00 0.01 0.01 93 1015.9
20180224135253 24 82 3.0 7.0 0.00 0.01 0.01 92 1016.2
20180224134244 24 82 2.0 7.0 0.00 0.01 0.01 93 1016.2
20180224133303 24 88 2.0 7.0 0.00 0.01 0.01 93 1016.5
20180224132307 24 117 3.0 7.0 0.00 0.01 0.01 93 1016.7
20180224131259 24 80 1.0 5.0 0.00 0.00 0.00 93 1017.0
20180224130315 24 87 1.0 4.0 0.00 0.00 0.00 93 1017.2
20180224125331 23 84 1.0 6.0 0.00 0.00 0.00 93 1017.4
20180224124345 23 103 1.0 7.0 0.00 0.00 0.00 93 1017.5
20180224123339 23 76 3.0 7.0 0.00 0.00 0.00 93 1017.5
20180224122328 23 89 2.0 6.0 0.00 0.00 0.00 93 1017.7
20180224121321 23 71 2.0 6.0 0.00 0.00 0.00 93 1017.9
20180224120256 22 98 2.0 7.0 0.00 0.00 0.00 93 1017.8
20180224115227 22 68 3.0 10.0 0.00 0.00 0.00 93 1018.0
20180224114223 22 81 4.0 10.0 0.00 0.00 0.00 92 1018.0
20180224113220 22 68 4.0 10.0 0.00 0.00 0.00 92 1017.9
20180224112243 22 99 4.0 10.0 0.00 0.00 0.00 92 1018.2
20180224111207 21 86 4.0 7.0 0.00 0.00 0.00 92 1018.5
20180224110253 21 49 3.0 10.0 0.00 0.00 0.00 92 1018.7
20180224105235 21 76 4.0 10.0 0.00 0.00 0.00 92 1019.0
20180224104207 21 23 3.0 10.0 0.00 0.00 0.00 92 1019.1
20180224103207 21 76 4.0 9.0 0.00 0.00 0.00 92 1019.4
20180224102132 21 89 3.0 9.0 0.00 0.00 0.00 92 1019.6
20180224101113 21 84 4.0 9.0 0.00 0.00 0.00 92 1019.6
20180224100059 21 88 3.0 9.0 0.00 0.00 0.00 92 1019.7
20180224095030 20 58 2.0 7.0 0.00 0.00 0.00 92 1019.8
20180224094038 20 80 2.0 8.0 0.00 0.00 0.00 92 1019.9
20180224093022 20 88 3.0 8.0 0.00 0.00 0.00 92 1020.1
20180224090940 20 63 6.0 13.0 0.00 0.00 0.00 91 1020.1
20180224090003 20 75 4.0 11.0 0.00 0.00 0.00 91 1020.6
20180224084953 20 52 4.0 12.0 0.00 0.00 0.00 91 1021.0
20180224083959 20 42 5.0 12.0 0.00 0.00 0.00 91 1021.2
20180224082933 20 42 5.0 14.0 0.00 0.00 0.00 91 1021.3
20180224081905 20 19 4.0 12.0 0.00 0.00 0.00 91 1021.7
20180224080907 20 56 6.0 12.0 0.00 0.00 0.00 91 1021.8
20180224075851 20 38 6.0 15.0 0.00 0.00 0.00 91 1022.3
20180224074909 20 337 7.0 15.0 0.00 0.00 0.00 91 1022.5
20180224073931 20 33 6.0 12.0 0.00 0.00 0.00 90 1022.9
20180224072954 20 12 5.0 11.0 0.00 0.00 0.00 90 1023.5
20180224072012 20 0 5.0 11.0 0.00 0.00 0.00 90 1023.8
20180224071026 20 0 4.0 10.0 0.00 0.00 0.00 90 1024.3
20180224065950 20 0 3.0 11.0 0.00 0.00 0.00 90 1024.6
20180224065001 20 0 4.0 11.0 0.00 0.00 0.00 90 1024.8
20180224063951 21 0 3.0 7.0 0.00 0.00 0.00 90 1024.8
20180224062957 21 0 3.0 7.0 0.00 0.00 0.00 90 1025.0
20180224061951 20 0 2.0 6.0 0.00 0.00 0.00 90 1025.1
20180224060918 20 0 4.0 10.0 0.00 0.00 0.00 90 1025.1
20180224055913 20 0 4.0 8.0 0.00 0.00 0.00 90 1025.2
20180224054853 20 0 3.0 9.0 0.00 0.00 0.00 90 1025.3
20180224053817 20 0 3.0 10.0 0.00 0.00 0.00 89 1025.4
20180224052750 20 0 2.0 10.0 0.00 0.00 0.00 89 1025.4
20180224051731 20 0 1.0 7.0 0.00 0.00 0.00 89 1025.5
20180224050729 21 0 3.0 9.0 0.00 0.00 0.00 89 1025.6
20180224045709 21 0 3.0 6.0 0.00 0.01 0.00 89 1025.9
20180224044640 20 0 3.0 8.0 0.00 0.02 0.00 89 1025.9
20180224043702 21 0 3.0 8.0 0.00 0.02 0.00 89 1026.0
20180224042636 21 0 3.0 8.0 0.00 0.03 0.00 89 1026.2
20180224041625 21 0 3.0 8.0 0.00 0.05 0.00 89 1026.5
20180224040622 21 0 3.0 7.0 0.00 0.05 0.00 89 1026.5
20180224035624 21 0 3.0 7.0 0.00 0.05 0.00 89 1026.4
20180224034630 21 0 2.0 8.0 0.00 0.05 0.00 89 1026.4